DH0GMA Weather Reports


Display with metric or nautical units.
time (UTC)temp
F
wind
direction
speed
MPH
gust
MPH
rain 1hr
in
rain 24hr
in
rain mn
in
humidity
%
barometer
mb
20260906000013 57 177 0.0 0.0 0.00 0.04 0.00 92 1025.5
20260905235012 57 177 0.0 0.0 0.00 0.04 0.00 93 1025.4
20260905234012 57 177 0.0 0.0 0.00 0.04 0.00 92 1025.3
20260905233012 57 177 0.0 0.0 0.00 0.04 0.00 92 1025.3
20260905232012 58 177 0.0 0.0 0.00 0.04 0.00 92 1025.2
20260905231012 58 177 0.0 0.0 0.00 0.04 0.00 91 1025.4
20260905230012 58 177 0.0 0.0 0.00 0.04 0.00 91 1025.4
20260905225012 58 177 0.0 1.0 0.00 0.04 0.00 91 1025.3
20260905224012 58 177 0.0 0.0 0.00 0.04 0.00 90 1025.2
20260905223012 59 177 0.0 0.0 0.00 0.04 0.00 90 1025.2
20260905222011 59 177 0.0 0.0 0.00 0.04 0.00 90 1025.2
20260905221011 59 177 0.0 2.0 0.00 0.04 0.00 90 1025.0
20260905220013 60 177 0.0 0.0 0.00 0.04 0.00 89 1024.9
20260905215012 60 177 0.0 0.0 0.00 0.04 0.04 89 1024.9
20260905214012 60 177 0.0 0.0 0.00 0.04 0.04 89 1024.8
20260905213012 60 177 0.0 0.0 0.00 0.04 0.04 88 1024.7
20260905212012 61 177 0.0 0.0 0.00 0.04 0.04 88 1024.7
20260905211012 61 177 0.0 0.0 0.00 0.04 0.04 88 1024.6
20260905210012 62 177 0.0 0.0 0.00 0.04 0.04 88 1024.6
20260905205012 62 177 0.0 1.0 0.00 0.04 0.04 87 1024.3
20260905204012 62 177 0.0 2.0 0.00 0.04 0.04 87 1024.3
20260905203012 62 176 0.0 1.0 0.00 0.04 0.04 87 1024.4
20260905202011 62 175 0.0 0.0 0.00 0.04 0.04 86 1024.4
20260905201011 63 175 0.0 0.0 0.00 0.04 0.04 85 1024.2
20260905200011 63 175 0.0 0.0 0.00 0.04 0.04 84 1024.2
20260905195011 63 175 0.0 0.0 0.00 0.04 0.04 83 1024.2
20260905194011 64 175 0.0 0.0 0.00 0.04 0.04 82 1024.0
20260905193011 64 175 0.0 0.0 0.00 0.04 0.04 82 1024.0
20260905192011 65 174 0.0 3.0 0.00 0.04 0.04 81 1023.9
20260905191012 65 159 0.0 3.0 0.00 0.04 0.04 79 1023.8
20260905190011 65 158 0.0 0.0 0.00 0.04 0.04 78 1023.7
20260905185011 66 157 0.0 1.0 0.00 0.04 0.04 76 1023.3
20260905184011 67 157 1.0 4.0 0.00 0.04 0.04 76 1023.2
20260905183011 67 214 2.0 4.0 0.00 0.04 0.04 74 1023.1
20260905182011 68 181 2.0 6.0 0.00 0.04 0.04 73 1023.1
20260905181012 69 186 2.0 5.0 0.00 0.04 0.04 72 1022.9
20260905180012 70 184 2.0 4.0 0.00 0.04 0.04 70 1022.7
20260905175012 71 265 0.0 2.0 0.00 0.04 0.04 69 1022.6
20260905174012 71 205 1.0 3.0 0.00 0.04 0.04 67 1022.4
20260905173012 72 221 0.0 2.0 0.00 0.04 0.04 66 1022.2
20260905172012 73 161 1.0 5.0 0.00 0.04 0.04 65 1022.0
20260905171011 74 145 1.0 4.0 0.00 0.04 0.04 63 1021.7
20260905170011 75 237 1.0 6.0 0.00 0.04 0.04 62 1021.7
20260905165011 76 146 2.0 8.0 0.00 0.04 0.04 60 1021.6
20260905164011 76 188 5.0 10.0 0.00 0.04 0.04 59 1021.6
20260905163011 76 185 2.0 8.0 0.00 0.04 0.04 62 1021.5
20260905162011 75 227 2.0 5.0 0.00 0.04 0.04 65 1021.4
20260905161010 75 219 1.0 6.0 0.00 0.04 0.04 63 1021.3
20260905160010 75 227 1.0 7.0 0.00 0.04 0.04 63 1021.3
20260905155010 76 127 2.0 7.0 0.00 0.04 0.04 61 1021.2
20260905153722 77 251 1.0 6.0 0.00 0.04 0.04 47 1021.1
20260905152724 79 191 2.0 8.0 0.00 0.04 0.04 45 1021.1
20260905151724 80 311 1.0 7.0 0.00 0.04 0.04 46 1021.1
20260905150724 80 300 6.0 8.0 0.00 0.04 0.04 44 1021.2
20260905145745 80 211 2.0 10.0 0.00 0.04 0.04 45 1021.0
20260905144744 80 319 2.0 9.0 0.00 0.04 0.04 46 1021.0
20260905143744 79 241 2.0 5.0 0.00 0.04 0.04 47 1021.1
20260905142744 79 49 2.0 7.0 0.00 0.04 0.04 47 1020.9
20260905141746 79 18 2.0 9.0 0.00 0.04 0.04 48 1021.0
20260905140746 78 173 2.0 8.0 0.00 0.04 0.04 53 1021.2
20260905135746 77 237 1.0 8.0 0.00 0.04 0.04 55 1021.1
20260905134745 77 148 4.0 9.0 0.00 0.04 0.04 53 1021.2
20260905133745 77 151 3.0 8.0 0.00 0.04 0.04 54 1021.1
20260905132745 77 189 3.0 9.0 0.00 0.04 0.04 54 1021.3
20260905131745 78 280 4.0 11.0 0.00 0.04 0.04 54 1021.2
20260905130745 77 326 3.0 9.0 0.00 0.04 0.04 55 1021.2
20260905125745 76 168 4.0 8.0 0.00 0.04 0.04 54 1021.1
20260905124745 76 260 3.0 8.0 0.00 0.04 0.04 56 1021.2
20260905123745 75 185 2.0 8.0 0.00 0.04 0.04 58 1021.1
20260905122744 75 222 2.0 10.0 0.00 0.04 0.04 58 1021.3
20260905121746 74 232 4.0 10.0 0.00 0.04 0.04 59 1021.2
20260905120746 74 143 1.0 8.0 0.00 0.04 0.04 63 1021.2
20260905115746 74 173 3.0 9.0 0.00 0.04 0.04 64 1021.3
20260905114746 73 298 2.0 5.0 0.00 0.04 0.04 66 1021.2
20260905113747 72 232 2.0 5.0 0.00 0.04 0.04 68 1021.5
20260905112747 71 227 2.0 8.0 0.00 0.04 0.04 69 1021.4
20260905111747 71 204 2.0 7.0 0.00 0.04 0.04 69 1021.5
20260905110747 71 264 2.0 9.0 0.00 0.04 0.04 70 1021.5
20260905105747 69 283 3.0 5.0 0.00 0.04 0.04 73 1021.5
20260905104747 69 121 3.0 7.0 0.00 0.04 0.04 72 1021.4
20260905103746 68 243 2.0 8.0 0.00 0.04 0.04 74 1021.3
20260905102746 67 241 2.0 6.0 0.00 0.04 0.04 77 1021.6
20260905101746 66 296 4.0 9.0 0.00 0.04 0.04 78 1021.4
20260905100746 67 218 5.0 12.0 0.00 0.04 0.04 77 1021.4
20260905095746 66 237 4.0 10.0 0.00 0.04 0.04 77 1021.3
20260905094747 66 181 5.0 9.0 0.00 0.04 0.04 78 1021.3
20260905093747 65 168 4.0 6.0 0.00 0.04 0.04 81 1021.3
20260905092747 65 251 3.0 7.0 0.00 0.04 0.04 79 1021.2
20260905091747 64 248 1.0 7.0 0.00 0.04 0.04 78 1021.1
20260905090747 63 168 1.0 4.0 0.00 0.04 0.04 84 1020.9
20260905085747 62 165 4.0 8.0 0.00 0.04 0.04 89 1021.0
20260905084747 62 218 3.0 8.0 0.00 0.04 0.04 91 1021.0
20260905083747 62 189 2.0 4.0 0.00 0.04 0.04 92 1020.9
20260905082746 61 208 2.0 4.0 0.00 0.04 0.04 92 1020.8
20260905081746 61 197 1.0 4.0 0.00 0.04 0.04 92 1020.6
20260905080746 61 210 0.0 2.0 0.00 0.04 0.04 92 1020.6
20260905075746 60 188 1.0 3.0 0.00 0.04 0.04 93 1020.6
20260905074746 60 183 0.0 2.0 0.01 0.04 0.04 93 1020.5
20260905073746 60 168 1.0 3.0 0.01 0.04 0.04 93 1020.6
20260905072745 60 98 1.0 2.0 0.01 0.04 0.04 93 1020.6
20260905071747 60 89 0.0 2.0 0.01 0.04 0.04 93 1020.4
20260905070747 60 89 0.0 2.0 0.01 0.04 0.04 93 1020.2
20260905065747 60 78 0.0 3.0 0.01 0.04 0.04 93 1020.1
20260905064747 59 156 1.0 3.0 0.00 0.03 0.03 92 1020.2
20260905063747 59 39 1.0 3.0 0.00 0.03 0.03 92 1020.4
20260905062747 59 39 0.0 4.0 0.00 0.03 0.03 92 1020.0
20260905061746 59 39 0.0 3.0 0.00 0.03 0.03 91 1020.0
20260905060746 59 39 0.0 1.0 0.01 0.03 0.03 91 1019.9
20260905055746 60 39 1.0 5.0 0.02 0.03 0.03 90 1019.9
20260905054746 60 31 0.0 4.0 0.03 0.03 0.03 90 1019.7
20260905053746 60 31 1.0 4.0 0.03 0.03 0.03 89 1019.7
20260905052745 61 61 2.0 4.0 0.03 0.03 0.03 87 1019.4
20260905051745 62 58 0.0 1.0 0.03 0.03 0.03 86 1019.2
20260905050745 63 58 0.0 0.0 0.02 0.02 0.02 84 1018.9
20260905045747 64 58 1.0 4.0 0.01 0.01 0.01 82 1018.6
20260905044747 64 74 1.0 7.0 0.00 0.00 0.00 80 1018.6
20260905043747 64 64 4.0 10.0 0.00 0.00 0.00 79 1018.4
20260905042747 65 8 1.0 5.0 0.00 0.00 0.00 80 1018.8
20260905041746 65 22 0.0 4.0 0.00 0.00 0.00 82 1018.5
20260905040746 65 17 0.0 3.0 0.00 0.00 0.00 81 1018.3
20260905035746 66 39 1.0 4.0 0.00 0.00 0.00 81 1018.2
20260905034746 66 7 0.0 3.0 0.00 0.00 0.00 80 1018.0
20260905033746 66 347 1.0 4.0 0.00 0.00 0.00 80 1017.9
20260905032746 66 343 0.0 4.0 0.00 0.00 0.00 80 1017.7
20260905031745 66 195 0.0 0.0 0.00 0.00 0.00 79 1017.5
20260905030745 66 195 0.0 0.0 0.00 0.00 0.00 79 1017.4
20260905025746 66 195 0.0 0.0 0.00 0.00 0.00 78 1017.3
20260905024746 66 195 0.0 0.0 0.00 0.00 0.00 78 1017.1
20260905023746 66 195 0.0 0.0 0.00 0.00 0.00 77 1016.8
20260905022746 67 195 0.0 0.0 0.00 0.00 0.00 77 1016.6
20260905021746 67 195 0.0 0.0 0.00 0.00 0.00 77 1016.7
20260905020745 67 195 0.0 0.0 0.00 0.00 0.00 76 1016.7
20260905015745 67 195 0.0 0.0 0.00 0.00 0.00 76 1016.7
20260905014747 67 195 0.0 0.0 0.00 0.00 0.00 75 1016.6
20260905013747 68 195 0.0 1.0 0.00 0.00 0.00 74 1016.6
20260905012747 68 195 0.0 2.0 0.00 0.00 0.00 74 1016.5
20260905011746 68 195 0.0 1.0 0.00 0.00 0.00 73 1016.4
20260905010747 68 194 2.0 3.0 0.00 0.00 0.00 73 1016.2
20260905005746 69 191 1.0 3.0 0.00 0.00 0.00 73 1016.1
20260905004746 69 188 2.0 3.0 0.00 0.00 0.00 73 1016.2
20260905003746 69 176 2.0 3.0 0.00 0.00 0.00 73 1016.0
20260905002746 69 161 2.0 4.0 0.00 0.00 0.00 72 1015.9
20260905001746 69 183 1.0 3.0 0.00 0.00 0.00 72 1015.9
20260905000746 70 164 1.0 3.0 0.00 0.00 0.00 71 1015.9